Weather History for KDNV - October, 2012

Change the Weather History Date:

Tuesday, October 2, 2012

  Actual Average (KLAF) Record (KLAF)
Temperature  
Mean Temperature 56 °F 59 °F  
Max Temperature 59 °F 71 °F 92 °F (1983)
Min Temperature 54 °F 48 °F 29 °F (1985)
Degree Days  
Heating Degree Days 8 7  
Month to date heating degree days 14  
Since 1 July heating degree days 99  
Cooling Degree Days 0 1  
Month to date cooling degree days 3  
Year to date cooling degree days 968  
Growing Degree Days 6 (Base 50)    
Moisture  
Dew Point 52 °F    
Average Humidity 84    
Maximum Humidity 97    
Minimum Humidity 69    
Precipitation  
Precipitation 0.06 in 0.10 in 1.29 in (2014)
Month to date precipitation 0.20  
Year to date precipitation 28.41  
Sea Level Pressure  
Sea Level Pressure 29.78 in    
Wind  
Wind Speed 9 mph (NE)    
Max Wind Speed 17 mph    
Max Gust Speed 24 mph    
Visibility 7 miles    
Events Rain    
T = Trace of Precipitation, MM = Missing Value Source: NWS Daily Summary

Daily Weather History Graph

Daily Weather History Graph

Search for Another Location

Airport or City:

Trip Planner

Search our weather history database for the weather conditions in past years. The results will help you decide how hot, cold, wet, or windy it might be!

Date:

Astronomy

Oct. 02, 2012 Rise Set
Actual Time 6:48 AM CDT 6:30 PM CDT
Civil Twilight 6:21 AM CDT 6:57 PM CDT
Nautical Twilight 5:49 AM CDT 7:28 PM CDT
Astronomical Twilight 5:17 AM CDT 8:00 PM CDT
Moon 7:42 PM CDT (10/2) 9:15 AM CDT (10/2)
Length of Visible Light 12h 36m
Length of Day
11h 41m
Waning Gibbous, 94% of the Moon is Illuminated
Oct 2
Waning Gibbous
Oct 8
Last Quarter
Oct 15
New
Oct 21
First Quarter
Oct 29
Full

Hourly Weather History & Observations

Time (CDT) Temp. Dew Point Humidity Pressure Visibility Wind Dir Wind Speed Gust Speed Precip Events Conditions
12:15 AM 56.1 °F 46.2 °F 69% 29.75 in 10.0 mi NNE 8.1 mph - N/A Rain Light Rain
12:35 AM 55.9 °F 46.4 °F 70% 29.75 in 10.0 mi NNE 6.9 mph - N/A   Overcast
12:55 AM 55.8 °F 46.6 °F 71% 29.74 in 10.0 mi NNE 6.9 mph - N/A   Overcast
1:15 AM 55.4 °F 46.4 °F 72% 29.74 in 10.0 mi NNE 6.9 mph - N/A   Overcast
1:35 AM 55.4 °F 46.4 °F 72% 29.74 in 10.0 mi NNE 6.9 mph - N/A   Overcast
1:55 AM 55.4 °F 47.3 °F 74% 29.74 in 10.0 mi NE 6.9 mph - N/A   Overcast
2:15 AM 55.4 °F 47.8 °F 76% 29.73 in 10.0 mi NE 6.9 mph - N/A   Overcast
2:35 AM 55.2 °F 48.4 °F 78% 29.73 in 10.0 mi NE 8.1 mph - N/A   Overcast
2:55 AM 55.0 °F 48.7 °F 79% 29.73 in 10.0 mi NE 5.8 mph - N/A   Overcast
3:15 AM 55.0 °F 49.1 °F 80% 29.73 in 10.0 mi NE 6.9 mph - N/A   Overcast
3:35 AM 55.0 °F 49.3 °F 81% 29.72 in 10.0 mi NE 8.1 mph - N/A   Overcast
3:55 AM 55.0 °F 49.5 °F 81% 29.73 in 10.0 mi NE 9.2 mph - N/A   Overcast
4:15 AM 55.4 °F 49.6 °F 81% 29.74 in 10.0 mi NNE 8.1 mph - N/A   Overcast
4:35 AM 55.4 °F 49.8 °F 81% 29.74 in 10.0 mi NNE 10.4 mph - N/A   Overcast
4:55 AM 55.4 °F 49.6 °F 81% 29.74 in 10.0 mi NNE 10.4 mph - N/A   Overcast
5:15 AM 55.4 °F 49.5 °F 80% 29.74 in 10.0 mi NNE 10.4 mph - N/A   Overcast
5:35 AM 55.0 °F 49.5 °F 81% 29.74 in 10.0 mi NNE 8.1 mph - N/A   Overcast
5:55 AM 54.9 °F 49.5 °F 82% 29.74 in 10.0 mi North 10.4 mph - N/A   Overcast
6:15 AM 54.7 °F 48.9 °F 81% 29.75 in 10.0 mi North 9.2 mph - N/A   Overcast
6:35 AM 54.5 °F 48.2 °F 79% 29.76 in 10.0 mi North 9.2 mph - N/A   Scattered Clouds
6:55 AM 54.5 °F 47.8 °F 78% 29.76 in 10.0 mi NNE 11.5 mph - N/A   Mostly Cloudy
7:15 AM 54.7 °F 47.7 °F 77% 29.77 in 10.0 mi NNE 9.2 mph - N/A   Overcast
7:35 AM 54.9 °F 47.7 °F 77% 29.77 in 10.0 mi North 10.4 mph - N/A   Overcast
7:55 AM 55.0 °F 48.0 °F 77% 29.77 in 10.0 mi North 11.5 mph - N/A   Overcast
8:15 AM 55.6 °F 48.2 °F 76% 29.77 in 10.0 mi North 12.7 mph - N/A   Overcast
8:35 AM 56.3 °F 48.6 °F 75% 29.77 in 10.0 mi North 13.8 mph - N/A   Overcast
8:55 AM 57.2 °F 48.6 °F 73% 29.77 in 10.0 mi NNE 12.7 mph - N/A   Overcast
9:15 AM 57.4 °F 48.7 °F 73% 29.78 in 10.0 mi NNE 15.0 mph - N/A   Overcast
9:35 AM 57.4 °F 49.1 °F 74% 29.78 in 10.0 mi NE 17.3 mph 23.0 mph N/A   Overcast
9:55 AM 57.7 °F 49.5 °F 74% 29.78 in 10.0 mi NE 16.1 mph 20.7 mph N/A   Overcast
10:15 AM 57.0 °F 50.7 °F 79% 29.78 in 7.0 mi NE 13.8 mph 24.2 mph N/A Rain Rain
10:35 AM 56.7 °F 51.6 °F 83% 29.78 in 10.0 mi NNE 12.7 mph 16.1 mph N/A Rain Rain
10:55 AM 56.7 °F 51.3 °F 82% 29.79 in 10.0 mi NNE 11.5 mph 18.4 mph N/A   Overcast
11:15 AM 57.2 °F 51.4 °F 81% 29.78 in 10.0 mi NNE 16.1 mph - N/A   Overcast
11:35 AM 57.2 °F 51.4 °F 81% 29.79 in 7.0 mi NNE 12.7 mph - N/A   Light Drizzle
11:55 AM 57.4 °F 51.6 °F 81% 29.78 in 10.0 mi NNE 13.8 mph 19.6 mph N/A Rain Light Rain
12:15 PM 58.3 °F 50.9 °F 76% 29.78 in 10.0 mi NE 13.8 mph 19.6 mph N/A   Overcast
12:35 PM 58.5 °F 50.5 °F 75% 29.77 in 10.0 mi NE 11.5 mph - N/A   Overcast
12:55 PM 59.0 °F 50.9 °F 74% 29.77 in 10.0 mi NE 12.7 mph 18.4 mph N/A   Overcast
1:15 PM 58.5 °F 51.8 °F 79% 29.77 in 10.0 mi NNE 9.2 mph - N/A Rain Light Rain
1:35 PM 58.1 °F 52.0 °F 80% 29.77 in 7.0 mi NNE 12.7 mph 19.6 mph N/A Rain Rain
1:55 PM 57.6 °F 53.1 °F 85% 29.78 in 5.0 mi NE 11.5 mph - N/A Rain Light Rain
2:15 PM 56.8 °F 54.3 °F 91% 29.78 in 3.0 mi NNE 10.4 mph - 0.01 in Rain Light Rain
2:35 PM 57.2 °F 55.0 °F 92% 29.78 in 3.0 mi NNE 10.4 mph - 0.01 in Rain Light Rain
2:55 PM 57.2 °F 55.4 °F 94% 29.77 in 2.5 mi NNE 11.5 mph - 0.02 in Rain Light Rain
3:35 PM 57.4 °F 55.0 °F 92% 29.78 in 7.0 mi NNE 10.4 mph - N/A   Overcast
3:55 PM 57.7 °F 55.4 °F 92% 29.78 in 7.0 mi NNE 11.5 mph 16.1 mph N/A   Overcast
4:15 PM 57.7 °F 55.0 °F 91% 29.78 in 7.0 mi NNE 11.5 mph 16.1 mph N/A   Overcast
4:35 PM 57.9 °F 55.2 °F 91% 29.79 in 7.0 mi NE 10.4 mph - N/A   Overcast
4:55 PM 57.7 °F 55.0 °F 91% 29.79 in 7.0 mi NNE 11.5 mph - N/A   Overcast
5:15 PM 57.6 °F 55.0 °F 91% 29.80 in 5.0 mi NNE 10.4 mph - N/A   Overcast
5:35 PM 57.2 °F 55.4 °F 94% 29.80 in 3.0 mi NNE 9.2 mph - N/A Rain Light Rain
5:55 PM 57.2 °F 55.4 °F 94% 29.80 in 2.5 mi NE 5.8 mph - N/A Rain Light Rain
6:15 PM 57.2 °F 55.6 °F 94% 29.81 in 2.5 mi NE 8.1 mph - 0.01 in Rain Light Rain
6:35 PM 57.2 °F 55.6 °F 94% 29.81 in 4.0 mi NE 9.2 mph - 0.01 in Rain Light Rain
6:55 PM 57.2 °F 55.6 °F 94% 29.82 in 3.0 mi NE 6.9 mph - 0.02 in Rain Light Rain
7:15 PM 57.2 °F 55.6 °F 94% 29.82 in 4.0 mi NE 8.1 mph - N/A Rain Light Rain
7:35 PM 57.0 °F 55.6 °F 95% 29.82 in 4.0 mi NE 8.1 mph - 0.01 in Rain Light Rain
7:55 PM 57.0 °F 55.6 °F 95% 29.83 in 4.0 mi NE 6.9 mph - 0.01 in Rain Light Rain
8:15 PM 57.2 °F 55.8 °F 95% 29.83 in 3.0 mi NE 5.8 mph - N/A Rain Light Rain
8:35 PM 57.2 °F 55.8 °F 95% 29.83 in 3.0 mi NE 5.8 mph - N/A   Light Drizzle
8:55 PM 57.2 °F 55.8 °F 95% 29.83 in 2.5 mi NNE 5.8 mph - N/A Rain Light Rain
9:15 PM 57.2 °F 55.9 °F 96% 29.84 in 4.0 mi NE 5.8 mph - N/A   Overcast
9:35 PM 57.2 °F 55.4 °F 94% 29.84 in 2.5 mi NE 5.8 mph - N/A   Overcast
9:55 PM 57.4 °F 56.3 °F 96% 29.84 in 1.5 mi NE 4.6 mph - N/A   Overcast
10:15 PM 57.4 °F 56.3 °F 96% 29.84 in 1.2 mi Calm Calm - 0.01 in Rain Light Rain
10:35 PM 57.6 °F 56.5 °F 96% 29.85 in 1.5 mi ENE 3.5 mph - 0.01 in Rain Light Rain
10:55 PM 57.7 °F 56.7 °F 96% 29.85 in 1.5 mi Calm Calm - 0.01 in   Drizzle
11:15 PM 58.1 °F 57.2 °F 97% 29.84 in 2.0 mi ESE 3.5 mph - N/A Rain Light Rain
11:35 PM 58.1 °F 57.2 °F 97% 29.85 in 3.0 mi SE 5.8 mph - N/A   Overcast
11:55 PM 58.1 °F 57.2 °F 97% 29.85 in 3.0 mi SSE 6.9 mph - N/A   Overcast